{"data":{"norad_id":61768,"intl_designator":"2024-199AK","name":"2024-199AK","alt_names":[],"object_type":"PAYLOAD","status":"ACTIVE","operator":null,"country":"TBD","launch_date":"2024-11-04","launch_site_code":"VOSTO","launch_vehicle":null,"mission":null,"orbit_class":"UNKNOWN","rcs_meters":null,"size_class":null,"mass_kg":null,"dimensions":null,"purposes":[],"wikipedia_slug":null,"has_3d_model":false,"image_url":null,"decayed_at":null,"tle_current":{"epoch":"2026-05-25T03:45:37.056096Z","epoch_age_seconds":61477,"freshness":"FRESH","line1":"1 61768U 24199AK  26145.15667889  .00021965  00000+0  41328-3 0  9994","line2":"2 61768  97.3000  19.7092 0006168  32.8323 327.3309 15.48546250130774","mean_motion":15.4854625,"eccentricity":0.0006168,"inclination_deg":97.3,"raan_deg":19.7092,"arg_perigee_deg":32.8323,"mean_anomaly_deg":327.3309,"bstar":0.00041328,"rev_number":13077,"period_min":92.990441841824,"perigee_km":416.78431450366,"apogee_km":425.17170277832,"semimajor_km":6799.115008641,"source":"CELESTRAK","updated_at":"2026-05-25T13:38:02.558207Z"}}}